PBO Station Position Time Series. Reference Frame : NAM14
Format Version,1.1.0
4-character ID,ONAB
Station name,Ona_Beach
Begin Date, 2008-08-22
End Date, 2019-10-07
Release Date, 2019-10-08
Reference position, 44.5145225065 North Latitude, -124.0745160821 East Longitude, 17.54613 meters elevation,
Date, North (mm), East (mm), Vertical (mm), North Std. Deviation (mm), East Std. Deviation (mm),              Vertical Std. Deviation (mm), Quality,
2008-08-22,0.00, 0.00, 0.00, 2.20, 1.53, 7.06, repro,
2008-08-23,-0.54, -1.13, 6.67, 2.18, 1.52, 7.00, repro,
2008-08-24,1.46, -0.78, 2.49, 2.23, 1.58, 7.30, repro,
2008-08-25,0.36, -0.21, 2.72, 2.23, 1.54, 7.20, repro,
2008-08-26,0.42, -0.42, 2.69, 2.20, 1.53, 7.07, repro,
2008-08-27,-1.05, 0.40, 3.40, 2.23, 1.56, 7.20, repro,
2008-08-28,-0.75, -0.29, -0.56, 2.30, 1.58, 7.23, repro,
2008-08-29,0.63, 0.01, -6.74, 2.20, 1.56, 7.10, repro,
2008-08-30,0.12, -0.38, 3.06, 2.25, 1.56, 7.19, repro,
2008-08-31,0.78, 0.91, 6.40, 2.25, 1.57, 7.24, repro,
2008-09-01,1.44, 1.04, -2.26, 2.23, 1.55, 7.13, repro,
2008-09-02,1.21, 0.16, -2.51, 2.21, 1.57, 7.19, repro,
2008-09-03,1.26, 0.43, -3.48, 2.19, 1.56, 7.09, repro,
2008-09-04,0.72, 1.26, -1.37, 2.38, 1.70, 7.82, repro,
2008-09-05,0.90, 0.37, -3.76, 2.23, 1.58, 7.26, repro,
2008-09-06,1.61, 0.25, 7.47, 2.23, 1.56, 7.21, repro,
2008-09-07,1.64, 2.47, 7.45, 2.22, 1.55, 7.11, repro,
2008-09-08,0.63, 0.10, -3.02, 2.18, 1.55, 7.04, repro,
2008-09-09,-0.53, 0.75, 11.51, 2.24, 1.55, 7.18, repro,
2008-09-10,1.10, 0.57, 5.14, 2.25, 1.60, 7.31, repro,
2008-09-11,0.31, 1.00, 4.44, 2.24, 1.57, 7.17, repro,
2008-09-12,-0.18, -0.07, 8.29, 2.24, 1.57, 7.21, repro,
2008-09-13,1.60, 1.78, -1.94, 2.21, 1.54, 7.08, repro,
2008-09-14,0.15, 0.85, 5.06, 2.18, 1.54, 7.03, repro,
2008-09-15,-0.06, 0.55, 3.78, 2.19, 1.54, 7.09, repro,
2008-09-16,1.56, 1.87, 2.62, 2.22, 1.57, 7.21, repro,
2008-09-17,1.07, 0.27, 3.10, 2.31, 1.59, 7.40, repro,
2008-09-18,0.84, 0.42, 5.90, 2.22, 1.54, 7.07, repro,
2008-09-19,1.72, 0.55, -1.32, 2.16, 1.52, 6.95, repro,
2008-09-20,2.06, 1.78, -1.46, 2.17, 1.52, 6.96, repro,
2008-09-21,1.46, 1.33, 5.43, 2.18, 1.52, 7.00, repro,
2008-09-22,1.06, 1.25, 7.63, 2.22, 1.52, 7.06, repro,
2008-09-24,-0.44, 0.49, -1.03, 2.25, 1.58, 7.26, repro,
2008-09-25,0.76, 1.15, 6.53, 2.24, 1.57, 7.18, repro,
2008-09-26,0.91, 1.64, 2.00, 2.18, 1.52, 7.00, repro,
2008-09-27,0.70, 1.20, 6.89, 2.25, 1.56, 7.20, repro,
2008-09-28,1.17, 1.70, 5.12, 2.20, 1.51, 6.93, repro,
2008-09-29,0.60, 0.46, 1.20, 2.20, 1.54, 7.04, repro,
2008-09-30,-0.01, -0.12, 4.15, 2.18, 1.52, 6.96, repro,
2008-10-01,-0.14, 1.68, 1.01, 2.18, 1.53, 6.99, repro,
2008-10-02,1.51, 2.52, 13.15, 2.24, 1.57, 7.17, repro,
2008-10-03,0.21, 0.08, 11.44, 2.26, 1.56, 7.23, repro,
2008-10-04,1.14, -0.25, 11.23, 2.23, 1.55, 7.17, repro,
2008-10-05,1.68, 0.41, 5.51, 2.20, 1.53, 7.03, repro,
2008-10-06,0.45, 0.78, 2.67, 2.19, 1.53, 7.05, repro,
2008-10-07,0.51, 2.07, 2.50, 2.28, 1.57, 7.22, repro,
2008-10-08,-0.68, 0.90, 1.96, 2.25, 1.55, 7.16, repro,
2008-10-09,2.10, 2.53, -1.31, 2.16, 1.52, 6.97, repro,
2008-10-10,0.60, 0.86, -1.16, 2.15, 1.52, 6.98, repro,
2008-10-11,-0.14, 0.69, -1.91, 2.13, 1.50, 6.92, repro,
2008-10-12,1.22, 1.78, -10.42, 2.15, 1.53, 7.01, repro,
2008-10-13,-0.18, 2.47, 3.07, 2.15, 1.51, 6.96, repro,
2008-10-14,0.54, 1.02, 0.07, 2.17, 1.51, 6.98, repro,
2008-10-15,1.22, 2.29, 1.80, 2.20, 1.53, 7.07, repro,
2008-10-16,1.76, 0.10, -2.19, 2.22, 1.55, 7.19, repro,
2008-10-17,1.43, 0.59, -3.87, 2.16, 1.52, 6.99, repro,
2008-10-18,-0.58, 2.35, 0.53, 2.15, 1.52, 7.02, repro,
2008-10-19,-1.02, 2.85, 3.46, 2.15, 1.52, 6.99, repro,
2008-10-20,1.33, 2.07, 1.81, 2.17, 1.54, 7.08, repro,
2008-10-21,0.82, 3.96, -1.03, 2.13, 1.51, 6.93, repro,
2008-10-22,-0.74, 0.44, -4.19, 2.14, 1.51, 6.94, repro,
2008-10-23,0.37, 2.80, 6.36, 2.16, 1.51, 7.04, repro,
2008-10-24,0.07, 0.02, -0.61, 3.00, 2.34, 10.56, repro,
2008-10-25,0.02, 2.83, 8.82, 2.14, 1.51, 6.94, repro,
2008-10-26,1.62, 1.17, -3.32, 2.14, 1.50, 6.93, repro,
2008-10-27,0.63, 2.44, -4.23, 2.15, 1.50, 6.91, repro,
2008-10-28,0.75, 0.24, -2.91, 2.24, 1.53, 7.06, repro,
2008-10-29,0.76, 1.83, 3.53, 2.25, 1.55, 7.16, repro,
2008-10-30,-0.48, 1.78, 3.90, 2.15, 1.53, 6.97, repro,
2008-10-31,-1.20, 1.82, 2.63, 2.21, 1.57, 7.20, repro,
2008-11-01,2.36, 0.48, 1.83, 2.16, 1.53, 7.07, repro,
2008-11-02,-0.17, 1.95, -2.88, 2.17, 1.55, 7.09, repro,
2008-11-03,0.63, 1.18, 7.99, 2.18, 1.55, 7.08, repro,
2008-11-04,2.35, -0.55, 0.72, 2.21, 1.56, 7.14, repro,
2008-11-05,0.12, -0.17, 6.47, 2.15, 1.52, 6.94, repro,
2008-11-06,-0.03, 1.96, -2.04, 2.17, 1.55, 7.08, repro,
2008-11-07,0.53, 1.73, 6.39, 2.16, 1.53, 7.00, repro,
2008-11-08,2.24, 0.38, -3.61, 2.22, 1.59, 7.36, repro,
2008-11-09,0.63, 0.87, 7.53, 2.16, 1.57, 7.12, repro,
2008-11-10,1.81, 2.16, 6.33, 2.17, 1.58, 7.14, repro,
2008-11-11,0.86, 2.11, 4.28, 2.18, 1.55, 7.09, repro,
2008-11-12,0.07, 1.96, 3.56, 2.16, 1.52, 7.01, repro,
2008-11-13,-0.34, 0.28, 0.91, 2.14, 1.53, 7.02, repro,
2008-11-14,0.85, 1.78, -6.02, 2.17, 1.56, 7.14, repro,
2008-11-15,1.04, 2.42, -8.14, 2.18, 1.56, 7.12, repro,
2008-11-16,0.34, 1.33, -2.49, 2.18, 1.58, 7.22, repro,
2008-11-17,-0.14, 3.05, -6.70, 2.23, 1.61, 7.27, repro,
2008-11-18,0.37, 1.18, -4.55, 2.19, 1.62, 7.28, repro,
2008-11-19,0.68, 2.07, -12.36, 2.17, 1.58, 7.18, repro,
2008-11-20,1.54, 1.42, -6.31, 2.20, 1.61, 7.31, repro,
2008-11-21,1.28, 3.96, -3.95, 2.23, 1.62, 7.34, repro,
2008-11-22,2.26, 1.90, 7.23, 2.20, 1.64, 7.39, repro,
2008-11-23,1.80, 2.65, -5.89, 2.26, 1.60, 7.26, repro,
2008-11-24,1.10, 2.11, -5.86, 2.22, 1.62, 7.38, repro,
2008-11-25,1.09, 3.03, -7.39, 2.15, 1.55, 7.07, repro,
2008-11-26,1.15, 3.42, -2.31, 2.14, 1.54, 6.99, repro,
2008-11-27,1.56, 4.60, -6.68, 2.15, 1.55, 7.07, repro,
2008-11-28,0.48, 1.34, 5.25, 2.24, 1.65, 7.46, repro,
2008-11-29,0.21, 0.35, -12.12, 2.16, 1.59, 7.20, repro,
2008-11-30,0.17, 0.80, 7.45, 2.14, 1.54, 6.99, repro,
2008-12-01,1.01, 1.43, 2.20, 2.16, 1.54, 7.07, repro,
2008-12-02,1.20, 0.72, 6.77, 2.18, 1.59, 7.20, repro,
2008-12-03,2.08, 3.23, 4.11, 2.22, 1.57, 7.11, repro,
2008-12-04,1.08, 2.36, -5.31, 2.17, 1.56, 7.17, repro,
2008-12-05,2.53, 2.68, -4.45, 2.15, 1.57, 7.13, repro,
2008-12-06,1.52, 3.24, -1.56, 2.15, 1.60, 7.20, repro,
2008-12-07,2.69, 2.62, -3.57, 2.18, 1.59, 7.22, repro,
2008-12-08,2.86, 1.63, 2.38, 2.20, 1.58, 7.22, repro,
2008-12-09,3.78, 3.71, -10.29, 2.20, 1.57, 7.08, repro,
2008-12-10,3.91, 1.47, -13.27, 2.14, 1.52, 6.97, repro,
2008-12-11,2.05, 2.27, -1.92, 2.29, 1.62, 7.37, repro,
2008-12-12,1.51, 2.33, 1.38, 2.23, 1.59, 7.28, repro,
2008-12-13,2.53, -1.36, -1.25, 2.17, 1.56, 7.09, repro,
2008-12-14,4.29, 1.18, -8.39, 2.16, 1.51, 6.91, repro,
2008-12-15,4.63, 1.48, -2.60, 2.15, 1.52, 6.97, repro,
2008-12-16,2.53, 0.30, -9.82, 2.14, 1.52, 6.95, repro,
2008-12-17,2.58, 1.06, -5.31, 2.21, 1.53, 7.09, repro,
2008-12-18,2.10, 0.61, -2.52, 2.14, 1.51, 6.95, repro,
2008-12-19,1.13, 0.65, -4.28, 2.23, 1.55, 7.24, repro,
2008-12-20,2.67, 1.72, -3.34, 2.15, 1.51, 6.96, repro,
2008-12-21,2.43, -0.22, -3.14, 2.14, 1.51, 6.95, repro,
2008-12-22,1.26, 0.35, -0.49, 2.19, 1.55, 7.14, repro,
2008-12-23,0.30, 0.58, 2.67, 2.18, 1.54, 7.11, repro,
2008-12-24,0.91, -0.34, 6.61, 2.16, 1.51, 6.95, repro,
2008-12-25,2.10, 0.08, 7.04, 2.17, 1.52, 7.00, repro,
2008-12-26,0.55, 0.42, 4.58, 2.16, 1.52, 6.98, repro,
2008-12-27,0.77, 1.17, 3.23, 2.20, 1.58, 7.27, repro,
2008-12-28,0.70, -0.11, -3.69, 2.18, 1.54, 7.08, repro,
2008-12-29,-0.60, 0.38, -6.60, 2.18, 1.57, 7.19, repro,
2008-12-30,2.22, 3.73, -9.72, 2.16, 1.52, 6.99, repro,
2008-12-31,1.55, 3.93, -0.51, 2.13, 1.52, 6.97, repro,
2009-01-01,1.67, 2.48, 1.55, 2.15, 1.51, 6.98, repro,
2009-01-02,0.24, 1.69, -2.23, 2.15, 1.52, 7.01, repro,
2009-01-03,1.29, 3.65, -0.65, 2.16, 1.51, 6.95, repro,
2009-01-04,0.36, 3.34, -4.94, 2.17, 1.52, 6.96, repro,
2009-01-05,1.86, 3.51, 3.99, 2.15, 1.52, 6.98, repro,
2009-01-06,1.54, 3.02, -3.22, 2.16, 1.52, 7.02, repro,
2009-01-07,0.79, 3.37, 2.23, 2.14, 1.52, 6.97, repro,
2009-01-08,1.88, 2.75, -1.83, 2.18, 1.55, 7.10, repro,
2009-01-09,1.14, 5.30, -7.12, 2.19, 1.55, 7.13, repro,
2009-01-10,1.37, 5.84, -15.32, 2.15, 1.52, 6.99, repro,
2009-01-11,1.63, 5.48, -10.54, 2.14, 1.52, 7.01, repro,
2009-01-12,0.71, 4.26, -12.77, 2.13, 1.51, 6.93, repro,
2009-01-13,0.68, 2.87, -13.83, 2.13, 1.52, 6.96, repro,
2009-01-14,-0.28, 4.77, -8.84, 2.13, 1.51, 6.91, repro,
2009-01-15,-0.01, 4.33, -14.55, 2.13, 1.52, 6.97, repro,
2009-01-16,2.46, 3.64, -9.01, 2.14, 1.52, 6.99, repro,
2009-01-17,1.57, 3.58, -13.25, 2.12, 1.51, 6.93, repro,
2009-01-18,2.12, 4.38, -8.16, 2.13, 1.51, 6.93, repro,
2009-01-19,0.57, 4.53, -5.03, 2.11, 1.51, 6.91, repro,
2009-01-20,0.39, 4.53, -7.43, 2.12, 1.51, 6.92, repro,
2009-01-21,-0.17, 3.98, -0.23, 2.14, 1.52, 7.00, repro,
2009-01-22,1.08, 2.25, -2.75, 2.13, 1.52, 7.01, repro,
2009-01-23,-0.52, 1.92, -5.23, 2.46, 1.75, 8.15, repro,
2009-01-26,2.99, 5.22, -9.87, 3.45, 2.67, 11.48, repro,
2009-01-27,0.49, 5.80, -3.36, 2.14, 1.53, 7.05, repro,
2009-01-28,-0.25, 2.60, -8.51, 2.13, 1.52, 6.97, repro,
2009-01-29,-0.07, 4.65, -7.74, 2.12, 1.53, 6.99, repro,
2009-01-30,-0.20, 3.15, -7.03, 2.10, 1.51, 6.90, repro,
2009-01-31,0.58, 4.54, -5.57, 2.11, 1.52, 6.94, repro,
2009-02-01,-0.28, 5.28, -4.57, 2.13, 1.54, 7.02, repro,
2009-02-02,0.85, 4.46, -10.75, 2.13, 1.53, 7.02, repro,
2009-02-03,0.91, 3.96, -12.09, 2.12, 1.54, 7.00, repro,
2009-02-04,-0.94, 5.21, -8.80, 2.11, 1.52, 6.93, repro,
2009-02-05,1.29, 3.79, -7.44, 2.15, 1.56, 7.07, repro,
2009-02-06,0.01, 1.56, 0.20, 2.13, 1.53, 6.99, repro,
2009-02-07,-1.61, 1.64, -4.86, 2.12, 1.53, 6.96, repro,
2009-02-08,-0.64, 1.82, -3.66, 2.12, 1.54, 7.01, repro,
2009-02-09,-0.89, 1.76, 7.67, 2.14, 1.56, 7.05, repro,
2009-02-10,0.02, 3.87, -2.56, 2.11, 1.52, 6.91, repro,
2009-02-11,-0.49, 2.13, 1.43, 2.14, 1.55, 7.02, repro,
2009-02-12,0.67, 2.11, -2.55, 2.16, 1.55, 7.07, repro,
2009-02-13,-0.23, 2.04, -4.39, 2.12, 1.53, 6.95, repro,
2009-02-14,0.88, 3.75, -2.30, 2.13, 1.52, 6.94, repro,
2009-02-15,-0.17, 3.08, 6.53, 2.13, 1.55, 7.07, repro,
2009-02-16,0.05, 3.55, 6.97, 2.10, 1.50, 6.87, repro,
2009-02-17,0.26, 4.35, 4.09, 2.14, 1.52, 6.94, repro,
2009-02-18,0.70, 3.55, -7.46, 2.12, 1.53, 6.97, repro,
2009-02-19,-0.69, 3.99, -5.41, 2.15, 1.56, 7.18, repro,
2009-02-20,-1.05, 3.59, -5.55, 2.12, 1.53, 7.00, repro,
2009-02-21,-0.67, 4.16, -4.15, 2.13, 1.54, 7.07, repro,
2009-02-22,-0.04, 1.37, 1.99, 2.11, 1.52, 6.93, repro,
2009-02-23,-0.69, 3.71, -0.11, 2.16, 1.55, 7.13, repro,
2009-02-24,0.68, 3.56, -4.74, 2.24, 1.66, 7.38, repro,
2009-02-25,-1.33, 2.09, -8.98, 195.14, 171.58, 328.84, repro,
2009-02-26,0.14, 2.50, 0.22, 2.13, 1.56, 7.06, repro,
2009-02-27,0.43, 5.36, -1.67, 2.16, 1.58, 7.20, repro,
2009-02-28,1.70, 4.83, -7.72, 2.13, 1.57, 7.14, repro,
2009-03-01,-0.11, 5.08, 1.24, 2.13, 1.58, 7.19, repro,
2009-03-02,2.34, 2.56, -5.03, 2.12, 1.54, 7.05, repro,
2009-03-03,-0.84, 4.08, 0.89, 2.18, 1.61, 7.28, repro,
2009-03-04,0.02, 3.41, 2.50, 2.11, 1.52, 6.97, repro,
2009-03-05,1.24, 2.71, 3.29, 2.10, 1.54, 6.96, repro,
2009-03-06,1.05, 4.22, 0.90, 2.13, 1.60, 7.17, repro,
2009-03-07,1.46, 4.99, -6.32, 2.09, 1.54, 6.97, repro,
2009-03-08,1.28, 4.67, -4.75, 2.12, 1.55, 7.04, repro,
2009-03-09,3.51, 5.59, -2.32, 2.14, 1.56, 7.15, repro,
2009-03-10,-0.06, 3.98, -2.60, 2.11, 1.53, 6.98, repro,
2009-03-11,1.55, 4.39, -0.78, 2.10, 1.53, 6.92, repro,
2009-03-12,0.40, 3.55, -10.06, 2.11, 1.56, 7.03, repro,
2009-03-13,0.52, 4.17, -6.88, 2.12, 1.57, 7.14, repro,
2009-03-14,0.75, 3.64, -1.06, 2.11, 1.53, 6.96, repro,
2009-03-15,0.94, 2.61, 5.19, 2.11, 1.53, 6.93, repro,
2009-03-16,-0.30, 2.73, 0.27, 2.13, 1.55, 7.02, repro,
2009-03-17,1.16, 2.94, 2.77, 2.10, 1.53, 6.94, repro,
2009-03-18,1.95, 2.04, -11.79, 2.12, 1.54, 6.99, repro,
2009-03-19,-0.01, 4.34, -3.69, 2.11, 1.53, 6.93, repro,
2009-03-20,-0.55, 4.05, 3.32, 2.11, 1.52, 6.88, repro,
2009-03-21,0.97, 2.29, -1.36, 2.10, 1.52, 6.85, repro,
2009-03-22,1.51, 2.11, 0.11, 2.11, 1.53, 6.90, repro,
2009-03-23,1.31, 3.60, -2.68, 2.12, 1.54, 6.97, repro,
2009-03-24,0.79, 4.79, -1.75, 2.11, 1.54, 6.95, repro,
2009-03-25,1.29, 5.68, 0.25, 2.11, 1.53, 6.92, repro,
2009-03-26,0.43, 3.19, 1.55, 2.12, 1.52, 6.90, repro,
2009-03-27,-0.41, 3.36, -1.50, 2.15, 1.54, 6.97, repro,
2009-03-28,1.66, 3.25, -0.41, 2.15, 1.55, 7.03, repro,
2009-03-29,2.69, 2.89, 3.49, 2.16, 1.55, 7.05, repro,
2009-03-30,0.42, 5.32, -3.74, 2.16, 1.55, 7.07, repro,
2009-03-31,1.56, 4.27, -1.46, 2.15, 1.55, 7.03, repro,
2009-04-01,1.76, 3.49, -1.15, 2.14, 1.53, 6.92, repro,
2009-04-02,0.60, 0.60, 0.39, 2.20, 1.58, 7.18, repro,
2009-04-03,0.90, 1.20, -2.29, 2.23, 1.57, 7.21, repro,
2009-04-04,-0.54, 0.73, -9.68, 2.16, 1.55, 7.05, repro,
2009-04-05,-0.79, 1.18, -4.34, 2.18, 1.55, 7.07, repro,
2009-04-06,0.23, 1.87, -9.69, 2.15, 1.53, 6.97, repro,
2009-04-07,-0.51, 2.89, -5.24, 2.17, 1.53, 6.96, repro,
2009-04-08,0.89, 3.43, 2.71, 2.16, 1.54, 7.00, repro,
2009-04-09,0.34, 2.70, -1.45, 2.19, 1.55, 7.13, repro,
2009-04-10,1.03, 2.82, -5.29, 2.18, 1.55, 7.12, repro,
2009-04-11,-0.27, 3.83, 0.05, 2.17, 1.54, 7.00, repro,
2009-04-12,2.61, 4.17, -0.15, 2.17, 1.53, 7.01, repro,
2009-04-13,0.86, 3.47, -3.84, 2.17, 1.54, 6.99, repro,
2009-04-14,3.87, 3.56, -7.74, 2.18, 1.55, 7.07, repro,
2009-04-15,2.87, 2.89, -3.69, 2.18, 1.54, 7.07, repro,
2009-04-16,1.84, 2.86, -4.15, 2.18, 1.55, 7.15, repro,
2009-04-17,0.72, 3.63, -8.57, 2.19, 1.54, 7.11, repro,
2009-04-18,1.20, 4.43, -7.98, 2.17, 1.54, 7.03, repro,
2009-04-19,0.57, 4.62, -4.31, 2.17, 1.53, 7.00, repro,
2009-04-20,2.20, 4.46, -4.49, 2.19, 1.56, 7.14, repro,
2009-04-21,1.92, 3.20, -2.41, 2.18, 1.53, 7.03, repro,
2009-04-22,2.24, 3.68, 3.12, 2.18, 1.53, 7.04, repro,
2009-04-23,0.78, 3.48, -0.09, 2.22, 1.57, 7.15, repro,
2009-04-24,1.22, 3.62, -0.70, 2.22, 1.57, 7.12, repro,
2009-04-25,1.89, 3.02, -7.41, 2.19, 1.53, 7.04, repro,
2009-04-26,0.57, 3.84, -2.37, 2.19, 1.53, 7.08, repro,
2009-04-27,1.38, 3.79, -2.16, 2.20, 1.53, 7.05, repro,
2009-04-28,1.38, 4.25, -2.58, 2.20, 1.53, 7.03, repro,
2009-04-29,0.99, 4.00, -0.43, 2.26, 1.62, 7.36, repro,
2009-04-30,0.59, 3.37, -9.24, 2.21, 1.58, 7.15, repro,
2009-05-01,1.52, 2.69, -5.38, 2.19, 1.55, 7.10, repro,
2009-05-02,0.60, 4.06, -0.73, 2.20, 1.54, 7.12, repro,
2009-05-03,1.79, 4.57, -6.34, 2.21, 1.53, 7.07, repro,
2009-05-04,0.50, 3.75, 1.47, 2.19, 1.55, 7.06, repro,
2009-05-05,0.89, 2.12, 4.44, 2.17, 1.53, 7.00, repro,
2009-05-06,1.47, 2.81, -3.43, 2.23, 1.56, 7.18, repro,
2009-05-07,1.85, 3.55, -3.27, 2.19, 1.54, 7.07, repro,
2009-05-08,1.52, 5.24, -5.56, 2.18, 1.52, 7.00, repro,
2009-05-09,2.09, 5.30, -6.30, 2.17, 1.52, 6.99, repro,
2009-05-10,1.60, 3.86, -3.62, 2.14, 1.52, 6.93, repro,
2009-05-11,0.10, 4.62, -1.99, 2.16, 1.53, 6.97, repro,
2009-05-12,2.44, 4.50, -5.85, 2.20, 1.55, 7.09, repro,
2009-05-13,2.78, 5.38, -3.06, 2.19, 1.54, 7.09, repro,
2009-05-14,3.45, 3.83, 4.75, 2.18, 1.53, 7.06, repro,
2009-05-15,2.57, 4.49, -3.38, 2.16, 1.51, 6.95, repro,
2009-05-16,0.96, 3.84, -6.26, 2.14, 1.52, 6.94, repro,
2009-05-17,-0.95, 4.05, -4.34, 2.16, 1.53, 7.01, repro,
2009-05-18,1.87, 2.98, -1.53, 2.17, 1.53, 7.06, repro,
2009-05-19,2.82, 4.78, 2.90, 2.24, 1.62, 7.33, repro,
2009-05-20,3.27, 4.43, -4.85, 2.16, 1.53, 7.03, repro,
2009-05-21,2.83, 4.16, -6.17, 2.16, 1.52, 6.99, repro,
2009-05-22,2.24, 4.13, -9.52, 2.21, 1.54, 7.04, repro,
2009-05-23,1.56, 4.07, -7.98, 2.17, 1.53, 7.06, repro,
2009-05-24,2.75, 4.37, -7.69, 2.18, 1.53, 7.08, repro,
2009-05-25,3.65, 4.12, -6.47, 2.16, 1.52, 7.00, repro,
2009-05-26,2.67, 4.27, -6.28, 2.16, 1.53, 7.04, repro,
2009-05-27,1.01, 3.90, 1.16, 2.18, 1.53, 7.09, repro,
2009-05-28,1.56, 3.14, -0.45, 2.17, 1.53, 7.06, repro,
2009-05-29,2.24, 2.91, -3.04, 2.19, 1.53, 7.14, repro,
2009-05-30,0.35, 3.96, 1.92, 2.18, 1.53, 7.14, repro,
2009-05-31,2.46, 3.36, -7.10, 2.18, 1.53, 7.14, repro,
2009-06-01,1.84, 3.51, -5.99, 2.16, 1.52, 7.06, repro,
2009-06-02,2.63, 2.72, -4.88, 2.16, 1.51, 7.01, repro,
2009-06-03,1.34, 2.95, -9.64, 2.17, 1.52, 7.06, repro,
2009-06-04,1.83, 4.36, -9.26, 2.19, 1.53, 7.14, repro,
2009-06-05,2.78, 3.82, -2.02, 2.22, 1.55, 7.24, repro,
2009-06-06,2.57, 3.10, -2.43, 2.22, 1.56, 7.24, repro,
2009-06-07,2.33, 2.82, -2.13, 2.15, 1.52, 7.01, repro,
2009-06-08,2.17, 3.15, -1.31, 2.23, 1.56, 7.16, repro,
2009-06-09,2.74, 1.97, -0.09, 2.17, 1.51, 7.00, repro,
2009-06-10,1.72, 2.93, -7.29, 2.17, 1.52, 7.08, repro,
2009-06-11,1.52, 4.14, -2.39, 2.17, 1.52, 7.05, repro,
2009-06-12,1.65, 3.72, -4.29, 2.17, 1.52, 7.07, repro,
2009-06-13,2.34, 3.28, 3.87, 2.17, 1.52, 7.06, repro,
2009-06-14,1.23, 3.10, 0.97, 2.19, 1.57, 7.17, repro,
2009-06-15,0.96, 3.28, -3.54, 2.16, 1.52, 7.02, repro,
2009-06-16,2.19, 3.87, 0.92, 2.21, 1.55, 7.24, repro,
2009-06-17,1.46, 3.17, -2.77, 2.17, 1.52, 7.05, repro,
2009-06-18,2.22, 3.29, -2.87, 2.18, 1.52, 7.05, repro,
2009-06-19,1.98, 2.64, -3.41, 2.19, 1.55, 7.15, repro,
2009-06-20,2.14, 1.57, -1.05, 2.18, 1.54, 7.11, repro,
2009-06-21,3.37, 2.76, 2.06, 2.18, 1.53, 7.12, repro,
2009-06-22,0.06, 3.86, 3.72, 2.21, 1.55, 7.30, repro,
2009-06-23,1.59, 3.98, 1.10, 2.18, 1.53, 7.10, repro,
2009-06-24,2.29, 4.51, -2.42, 2.21, 1.54, 7.14, repro,
2009-06-25,0.36, 3.74, 0.78, 2.19, 1.55, 7.16, repro,
2009-06-26,2.26, 2.76, -6.64, 2.18, 1.56, 7.13, repro,
2009-06-27,1.47, 4.23, -6.06, 2.18, 1.56, 7.20, repro,
2009-06-28,1.12, 5.81, -4.51, 2.23, 1.60, 7.44, repro,
2009-06-29,1.37, 4.85, 2.37, 2.31, 1.61, 7.54, repro,
2009-06-30,3.15, 3.19, -5.54, 2.17, 1.55, 7.09, repro,
2009-07-01,1.41, 4.03, 3.00, 2.17, 1.55, 7.11, repro,
2009-07-02,0.91, 3.08, -0.78, 2.15, 1.53, 6.99, repro,
2009-07-03,0.95, 3.67, 0.52, 2.17, 1.53, 7.09, repro,
2009-07-04,1.89, 4.84, 1.31, 2.17, 1.52, 7.06, repro,
2009-07-05,0.80, 4.38, 3.01, 2.17, 1.52, 7.03, repro,
2009-07-06,2.04, 4.58, -0.66, 2.15, 1.53, 6.99, repro,
2009-07-07,0.91, 3.27, -0.24, 2.15, 1.53, 7.02, repro,
2009-07-08,0.86, 2.62, 3.03, 2.15, 1.52, 6.99, repro,
2009-07-09,0.45, 4.41, 1.20, 2.15, 1.53, 7.03, repro,
2009-07-10,2.41, 3.98, -5.86, 2.18, 1.53, 7.08, repro,
2009-07-11,1.14, 1.85, 1.49, 2.17, 1.54, 7.06, repro,
2009-07-12,1.55, 2.61, -3.25, 2.16, 1.55, 7.08, repro,
2009-07-13,0.42, 2.43, 4.70, 2.13, 1.53, 7.00, repro,
2009-07-14,1.63, 3.58, 0.71, 2.15, 1.54, 7.06, repro,
2009-07-15,1.04, 4.09, 1.75, 2.15, 1.52, 7.02, repro,
2009-07-16,1.07, 3.53, 3.05, 2.15, 1.52, 7.02, repro,
2009-07-17,1.28, 3.39, -3.12, 2.15, 1.53, 7.02, repro,
2009-07-18,1.16, 3.77, -3.81, 2.20, 1.58, 7.27, repro,
2009-07-19,1.99, 4.10, 1.14, 2.13, 1.53, 6.98, repro,
2009-07-20,1.43, 3.72, -0.06, 2.15, 1.53, 7.01, repro,
2009-07-21,0.81, 3.09, -3.09, 2.14, 1.53, 6.99, repro,
2009-07-22,-0.19, 3.12, 5.63, 2.16, 1.53, 7.03, repro,
2009-07-23,2.41, 2.25, 0.78, 2.14, 1.54, 7.02, repro,
2009-07-24,0.28, 2.22, -1.76, 2.17, 1.59, 7.26, repro,
2009-07-25,1.46, 2.47, 1.22, 2.22, 1.56, 7.23, repro,
2009-07-26,1.11, 3.99, 2.28, 2.26, 1.59, 7.44, repro,
2009-07-27,0.97, 3.67, 3.27, 2.15, 1.53, 6.98, repro,
2009-07-28,0.65, 3.83, 5.50, 2.22, 1.59, 7.28, repro,
2009-07-29,1.85, 2.72, -4.92, 2.14, 1.53, 7.02, repro,
2009-07-30,1.74, 3.33, 4.61, 2.21, 1.56, 7.21, repro,
2009-07-31,1.34, 2.50, 1.15, 2.15, 1.55, 7.07, repro,
2009-08-01,2.71, 3.13, 3.39, 2.14, 1.53, 6.98, repro,
2009-08-02,1.74, 2.56, 11.34, 2.15, 1.54, 7.01, repro,
2009-08-03,1.65, 2.83, -5.26, 2.16, 1.54, 7.05, repro,
2009-08-04,1.29, 1.39, 1.68, 2.17, 1.55, 7.09, repro,
2009-08-05,1.33, 1.67, -2.46, 2.20, 1.56, 7.17, repro,
2009-08-06,1.30, 2.01, 0.63, 2.17, 1.55, 7.06, repro,
2009-08-07,0.54, 3.07, 7.62, 2.49, 1.83, 8.54, repro,
2009-08-08,1.19, 2.18, 1.87, 2.18, 1.57, 7.22, repro,
2009-08-09,1.47, 2.05, -0.40, 2.20, 1.60, 7.30, repro,
2009-08-10,1.04, 2.34, 1.60, 2.15, 1.55, 7.06, repro,
2009-08-11,1.37, 2.13, 3.69, 2.14, 1.54, 6.96, repro,
2009-08-12,1.10, 2.85, 9.30, 2.16, 1.54, 7.00, repro,
2009-08-13,0.86, 2.79, 7.44, 2.23, 1.60, 7.24, repro,
2009-08-14,2.17, 2.48, 1.52, 2.19, 1.55, 7.13, repro,
2009-08-15,2.31, 1.51, 4.45, 2.16, 1.54, 7.01, repro,
2009-08-16,1.34, 2.97, 3.44, 2.23, 1.58, 7.19, repro,
2009-08-17,0.46, 3.80, 7.44, 2.21, 1.57, 7.23, repro,
2009-08-18,1.06, 3.35, 14.26, 2.25, 1.59, 7.24, repro,
2009-08-19,1.44, 2.33, 7.72, 2.18, 1.56, 7.09, repro,
2009-08-20,1.77, 2.57, 4.03, 2.21, 1.58, 7.22, repro,
2009-08-21,1.63, 1.51, -1.41, 2.23, 1.60, 7.27, repro,
2009-08-22,0.80, 2.42, 3.57, 2.20, 1.58, 7.11, repro,
2009-08-23,1.01, 2.60, 4.97, 2.20, 1.58, 7.11, repro,
2009-08-24,0.94, 3.66, 8.10, 2.21, 1.58, 7.15, repro,
2009-08-25,1.77, 2.16, 3.34, 2.25, 1.61, 7.32, repro,
2009-08-26,2.07, 1.89, 1.35, 2.27, 1.64, 7.43, repro,
2009-08-27,0.74, 2.87, 4.87, 2.22, 1.59, 7.19, repro,
2009-08-28,2.03, 4.01, -10.66, 2.17, 1.58, 7.13, repro,
2009-08-29,0.31, 2.59, 2.78, 2.16, 1.55, 6.96, repro,
2009-08-30,-0.07, 2.90, 4.66, 2.18, 1.56, 7.04, repro,
2009-08-31,0.07, 1.57, 5.33, 2.18, 1.56, 7.06, repro,
2009-09-01,-1.00, 2.05, 6.83, 2.22, 1.59, 7.20, repro,
2009-09-02,0.05, 2.70, 4.46, 2.17, 1.57, 7.06, repro,
2009-09-03,-0.54, 1.80, 1.61, 2.16, 1.56, 7.05, repro,
2009-09-04,0.62, 1.27, 4.01, 2.17, 1.56, 7.07, repro,
2009-09-05,-1.09, 0.47, 2.99, 2.22, 1.61, 7.33, repro,
2009-09-06,-2.18, 0.55, 14.67, 2.27, 1.65, 7.49, repro,
2009-09-07,-0.74, 1.59, 3.17, 2.18, 1.57, 7.10, repro,
2009-09-08,0.15, 0.47, 6.83, 2.16, 1.54, 7.00, repro,
2009-09-09,-1.00, -0.74, 4.23, 2.17, 1.56, 7.08, repro,
2009-09-10,-0.27, -0.91, 3.35, 2.17, 1.55, 7.06, repro,
2009-09-11,-0.81, -0.61, 4.79, 2.27, 1.61, 7.29, repro,
2009-09-12,-1.43, -0.91, 11.87, 2.16, 1.55, 7.07, repro,
2009-09-13,-0.87, 0.05, 16.93, 2.19, 1.60, 7.26, repro,
2009-09-14,-0.53, -0.29, 7.97, 2.17, 1.55, 7.08, repro,
2009-09-15,-1.23, -0.99, 6.82, 2.16, 1.55, 7.03, repro,
2009-09-16,0.67, 0.86, 0.03, 2.21, 1.58, 7.26, repro,
2009-09-17,-1.26, 0.43, 3.41, 2.24, 1.66, 7.47, repro,
2009-09-18,-1.52, 0.61, -0.82, 2.21, 1.62, 7.39, repro,
2009-09-19,-0.31, -1.33, 14.39, 2.19, 1.57, 7.18, repro,
2009-09-20,0.39, -2.30, 0.14, 2.17, 1.55, 7.09, repro,
2009-09-21,-0.57, -0.81, 2.54, 2.17, 1.57, 7.16, repro,
2009-09-22,0.27, -2.55, -1.60, 2.20, 1.59, 7.22, repro,
2009-09-23,0.46, 0.08, 3.41, 2.19, 1.60, 7.19, repro,
2009-09-24,-1.34, -0.86, 7.04, 2.16, 1.55, 7.05, repro,
2009-09-25,0.33, -1.12, 8.96, 2.20, 1.58, 7.17, repro,
2009-09-26,-0.96, -0.25, 12.41, 2.17, 1.56, 7.11, repro,
2009-09-27,-0.48, 0.52, 1.57, 2.17, 1.56, 7.14, repro,
2009-09-28,-0.69, -0.70, -0.78, 2.22, 1.58, 7.23, repro,
2009-09-29,-0.35, -0.24, 11.53, 2.23, 1.63, 7.38, repro,
2009-09-30,0.74, -0.01, 7.51, 2.17, 1.57, 7.15, repro,
2009-10-01,-0.76, -1.23, 3.41, 2.24, 1.64, 7.36, repro,
2009-10-02,-1.18, -0.63, 5.65, 2.18, 1.57, 7.14, repro,
2009-10-03,-0.42, 0.14, -0.96, 2.16, 1.56, 7.12, repro,
2009-10-04,1.37, 0.50, 5.34, 2.16, 1.56, 7.12, repro,
2009-10-05,-0.57, 0.87, 7.35, 2.16, 1.56, 7.12, repro,
2009-10-06,0.99, -0.27, 5.82, 2.17, 1.56, 7.11, repro,
2009-10-07,-0.15, 0.19, 12.01, 2.15, 1.56, 7.06, repro,
2009-10-08,-1.00, 1.86, 8.82, 2.26, 1.61, 7.27, repro,
2009-10-09,-0.18, 1.02, -5.13, 2.17, 1.56, 7.12, repro,
2009-10-10,-1.71, 1.31, 3.36, 2.16, 1.57, 7.19, repro,
2009-10-11,1.25, 0.63, 7.49, 2.16, 1.56, 7.07, repro,
2009-10-12,0.45, 0.40, 5.34, 2.17, 1.56, 7.10, repro,
2009-10-13,-0.12, 0.08, 12.57, 2.17, 1.59, 7.21, repro,
2009-10-14,1.39, -0.53, 13.14, 2.19, 1.57, 7.18, repro,
2009-10-15,0.40, 0.81, -0.28, 2.20, 1.60, 7.30, repro,
2009-10-16,0.24, 0.76, 0.87, 2.21, 1.62, 7.41, repro,
2009-10-17,-1.00, -0.74, 7.93, 2.22, 1.63, 7.32, repro,
2009-10-18,-0.35, -0.05, 10.77, 2.24, 1.64, 7.54, repro,
2009-10-19,-1.30, 1.04, 6.08, 2.19, 1.61, 7.27, repro,
2009-10-20,-0.45, 0.60, 0.27, 2.19, 1.63, 7.30, repro,
2009-10-21,0.51, 0.45, 3.26, 2.19, 1.62, 7.25, repro,
2009-10-22,0.25, 0.74, 4.72, 2.21, 1.63, 7.30, repro,
2009-10-23,0.43, -0.08, 8.68, 2.19, 1.62, 7.24, repro,
2009-10-24,-0.47, 2.00, 9.20, 2.20, 1.63, 7.28, repro,
2009-10-25,0.66, 0.88, -0.37, 2.24, 1.63, 7.35, repro,
2009-10-26,-0.44, 0.65, 5.38, 2.23, 1.65, 7.44, repro,